FW9176 Weather Reports


Display with metric or nautical units.
time (UTC)temp
F
wind
direction
speed
MPH
gust
MPH
rain 1hr
in
rain 24hr
in
rain mn
in
humidity
%
barometer
mb
20260506090057 43 0 0.0 0.0 0.00 0.14 0.00 63 1009.7
20260506084553 43 0 0.0 0.0 0.00 0.14 0.00 60 1009.6
20260506083058 44 0 0.0 0.0 0.00 0.14 0.00 57 1009.5
20260506081558 45 0 0.0 1.0 0.00 0.14 0.00 56 1009.5
20260506073054 46 0 0.0 1.0 0.00 0.14 0.00 54 1009.1
20260506071606 47 0 0.0 1.0 0.00 0.14 0.00 54 1009.0
20260506061551 49 0 0.0 3.0 0.00 0.14 0.00 48 1008.9
20260506044608 52 288 0.0 2.0 0.00 0.14 0.14 43 1008.3
20260506043056 52 0 0.0 4.0 0.00 0.14 0.14 42 1008.4
20260506041555 52 0 0.0 2.0 0.00 0.14 0.14 45 1008.4
20260506040052 52 259 0.0 3.0 0.00 0.14 0.14 46 1008.6
20260506034557 52 0 0.0 1.0 0.00 0.14 0.14 47 1008.2
20260506033056 52 248 0.0 0.0 0.00 0.14 0.14 46 1008.3
20260506031555 52 0 0.0 2.0 0.00 0.14 0.14 46 1007.9
20260506030054 52 0 0.0 2.0 0.00 0.14 0.14 46 1007.8
20260506024549 52 0 0.0 1.0 0.00 0.14 0.14 46 1007.8
20260506023056 53 259 0.0 1.0 0.00 0.14 0.14 46 1007.8
20260506021558 53 0 0.0 1.0 0.00 0.14 0.14 46 1007.6
20260506020050 53 0 0.0 1.0 0.00 0.14 0.14 44 1007.5
20260506014551 53 0 0.0 1.0 0.00 0.14 0.14 44 1007.2
20260506013051 53 0 0.0 0.0 0.00 0.14 0.14 43 1007.1
20260506011554 54 0 0.0 1.0 0.00 0.14 0.14 41 1006.8
20260506010056 54 0 0.0 1.0 0.00 0.14 0.14 41 1006.6
20260506004548 54 0 0.0 5.0 0.00 0.14 0.14 39 1006.5
20260506003054 54 293 0.0 3.0 0.00 0.14 0.14 39 1006.3
20260506001604 55 0 0.0 4.0 0.00 0.14 0.14 38 1006.4
20260506000053 55 0 0.0 5.0 0.00 0.14 0.14 38 1006.1
20260505234610 55 0 0.0 5.0 0.00 0.14 0.14 38 1006.2
20260505233051 55 262 0.0 3.0 0.00 0.14 0.14 37 1006.5
20260505231551 56 46 1.0 4.0 0.00 0.14 0.14 36 1006.4
20260505230053 56 273 0.0 3.0 0.00 0.14 0.14 37 1006.4
20260505224552 56 285 0.0 2.0 0.00 0.14 0.14 37 1006.5
20260505223104 56 243 1.0 7.0 0.00 0.14 0.14 35 1006.7
20260505221551 56 0 1.0 6.0 0.00 0.14 0.14 35 1006.5
20260505220055 56 293 1.0 5.0 0.00 0.14 0.14 33 1006.8
20260505214555 56 269 0.0 5.0 0.00 0.14 0.14 34 1006.8
20260505213054 56 274 2.0 6.0 0.00 0.14 0.14 33 1006.9
20260505211605 56 346 0.0 5.0 0.00 0.14 0.14 37 1006.7
20260505210054 56 319 2.0 6.0 0.00 0.14 0.14 34 1006.7
20260505204547 55 0 0.0 4.0 0.00 0.14 0.14 36 1006.8
20260505203116 55 245 1.0 5.0 0.00 0.14 0.14 35 1007.1
20260505201552 55 288 0.0 8.0 0.00 0.14 0.14 35 1007.1
20260505200053 55 0 0.0 3.0 0.00 0.14 0.14 38 1007.2
20260505194554 56 0 1.0 7.0 0.00 0.14 0.14 36 1007.1
20260505193052 56 280 0.0 3.0 0.00 0.14 0.14 39 1007.2
20260505191557 56 0 0.0 5.0 0.00 0.14 0.14 38 1007.3
20260505190051 56 0 1.0 7.0 0.00 0.14 0.14 39 1007.3
20260505184600 57 285 1.0 6.0 0.00 0.14 0.14 38 1007.3
20260505183059 57 241 2.0 8.0 0.00 0.14 0.14 36 1007.2
20260505181556 57 289 0.0 3.0 0.00 0.14 0.14 36 1007.2
20260505174548 57 258 1.0 5.0 0.00 0.14 0.14 36 1007.0
20260505173056 56 294 1.0 4.0 0.00 0.14 0.14 39 1006.9
20260505171555 57 258 1.0 5.0 0.00 0.14 0.14 42 1006.9
20260505170052 57 295 0.0 4.0 0.00 0.14 0.14 42 1006.9
20260505164550 55 0 0.0 6.0 0.00 0.14 0.14 44 1006.8
20260505163052 55 318 1.0 4.0 0.00 0.14 0.14 46 1007.1
20260505161548 54 300 1.0 4.0 0.00 0.14 0.14 45 1006.8
20260505153053 52 0 1.0 5.0 0.00 0.14 0.14 56 1006.6
20260505151551 51 289 0.0 4.0 0.00 0.14 0.14 61 1006.8
20260505124559 45 0 1.0 3.0 0.08 0.08 0.08 78 1006.8
20260505123053 46 0 0.0 2.0 0.05 0.05 0.05 77 1006.6
20260505121557 47 0 0.0 3.0 0.03 0.03 0.03 74 1007.0
20260505120107 49 301 0.0 4.0 0.01 0.01 0.01 65 1006.8
20260505114556 51 0 0.0 3.0 0.00 0.00 0.00 55 1005.8
20260505113101 51 281 0.0 4.0 0.00 0.00 0.00 52 1005.5
20260505111556 51 305 0.0 3.0 0.00 0.00 0.00 53 1004.7
20260505101557 53 331 0.0 3.0 0.00 0.00 0.00 54 1003.8
20260505100055 53 0 0.0 3.0 0.00 0.00 0.00 52 1004.0
20260505094600 54 0 0.0 2.0 0.00 0.00 0.00 53 1004.2
20260505093057 54 39 0.0 4.0 0.00 0.00 0.00 52 1004.0
20260505091551 56 275 0.0 5.0 0.00 0.00 0.00 51 1003.7